sat.trackr.live / text

‹ back to catalog

STARLINK-5173

NORAD 54059 · 2022-136J

PAYLOAD ACTIVE UNKNOWN

§ Identity

Operator
Country
US
Launch date
2022-10-20
Launch site
AFETR
Launch vehicle
Mass (kg)
RCS (m²)

Purposes: comms

External: N2YO · Heavens-Above · Gunter

§ Orbital elements

Epoch: 2026-05-25T00:01:01.465824Z

Period
95.44 min
Inclination
53.2160°
Eccentricity
0.0001391
Mean motion
15.08842841 rev/d
Perigee alt
538.8 km
Apogee alt
540.7 km
Semi-major
6,917.9 km
B*
2.6462e-5
RAAN
1.5960°
Arg perigee
92.8121°
Mean anomaly
267.3030°
Rev number
19,836

§ Raw data

STARLINK-51731 54059U 22136J   26145.00071141  .00000133  00000+0  26462-4 0  99992 54059  53.2160   1.5960 0001391  92.8121 267.3030 15.08842841198369

JSON: /api/v1/satellites/54059 · /tle

For live sub-satellite position, see the globe view (requires WebGL).

§ Visibility from observer

Set your observer location to see the next 7 days of passes ≥ 10°. The values pass through the URL so the page stays shareable.

No JS? Fill the form by hand. The geolocation button needs JavaScript.